Погода в Камбилеевском

Россия / Республика Северная Осетия — Алания     43°04′10″N   44°45′18″E
темп.,
°C
ветер,
м/с
пор.,
м/с
влажн.,
%
обл.,
%
осадки,
мм/ч
давл.,
гПа
погр.,
м
18 июня, пт
пт1800:00+16ююв229199 0.2 101738
03:00+15ююз119092 0.4 101813
06:00+15с119497 0.1 101880
09:00+17ссз118158 0.3 1018423
12:00+21с326179 0.2 10171155
15:00+21св336394 0.2 10161107
18:00+20ссв226812 0.0 1017517
21:00+15ю21880 0.0 101813
19 июня, сб
сб1900:00+15ю22721 0.0 101816
03:00+14ю22645 0.0 101715
06:00+17ююв116710 0.0 101737
09:00+23с225357 0.0 1015611
12:00+26ссв334731 0.0 10131171
15:00+27ссв33475 0.0 10121391
18:00+25св255818 0.0 1012375
21:00+19ю326326 0.0 101432
20 июня, вс
вс2000:00+18ю2247100 0.0 101327
03:00+18ю224637 0.0 101228
06:00+18ю22540 0.0 101236
09:00+26с1237100 0.0 1011516
12:00+28с324160 0.0 1011819
15:00+28с43460 0.0 10111024
18:00+25с22660 0.0 1012276
21:00+19ю21700 0.0 101422
21 июня, пн
пн2100:00+18ю22521 0.0 101425
03:00+17ю22490 0.0 101428
06:00+19ююв22560 0.0 101343
09:00+26с22410 0.0 1012525
12:00+29с33380 0.0 10111069
15:00+29ссв43410 0.0 10101153
18:00+27ссз12610 0.0 1010192
21:00+20ю32560 0.0 101236
22 июня, вт
вт2200:00+19ю324020 0.0 101235
03:00+17ю21430 0.0 101219
06:00+19ю21530 0.0 101233
09:00+25с21390 0.0 1012448
12:00+29с32350 0.0 1012994
15:00+30ссв33370 0.0 10111185
18:00+26с23570 0.0 1012292
21:00+20ю22712 0.0 101419